sat.trackr.live / text

‹ back to catalog

ARIRANG-5 (KOMPSAT-5)

NORAD 39227 · 2013-042A

PAYLOAD ACTIVE UNKNOWN

§ Identity

Operator
Country
SKOR
Launch date
2013-08-22
Launch site
DLS
Launch vehicle
Mass (kg)
RCS (m²)
3.46

Purposes: earth_obs

External: N2YO · Heavens-Above · Gunter

§ Orbital elements

Epoch: 2026-05-25T03:42:04.982112Z

Period
95.71 min
Inclination
97.6204°
Eccentricity
0.0002880
Mean motion
15.04504313 rev/d
Perigee alt
551.0 km
Apogee alt
555.0 km
Semi-major
6,931.2 km
B*
1.9183e-5
RAAN
332.1787°
Arg perigee
185.8199°
Mean anomaly
174.2994°
Rev number
70,039

§ Raw data

ARIRANG-5 (KOMPSAT-5)1 39227U 13042A   26145.15422433  .00000208  00000+0  19183-4 0  99902 39227  97.6204 332.1787 0002880 185.8199 174.2994 15.04504313700394

JSON: /api/v1/satellites/39227 · /tle

For live sub-satellite position, see the globe view (requires WebGL).

§ Visibility from observer

Set your observer location to see the next 7 days of passes ≥ 10°. The values pass through the URL so the page stays shareable.

No JS? Fill the form by hand. The geolocation button needs JavaScript.

§ Radio — SatNOGS DB

ModeDescriptionDownlinkUplink
BPSK S-band telemetry 2.256 GHz

1 transmitter · refreshed weekly from db.satnogs.org